GFSGL_500_spd_057.txt.gz
Wind_Speed
25 24 23 26 26 25 25 27 25 26 27 25 25 26 23 22 24 23 20 18 19 21 18 16 16 17 17 13 12 10 10 11 14 17 19 19 16 17 18 19 21 22 23
25 23 24 26 24 24 25 25 23 27 26 25 26 25 22 21 21 21 17 18 21 19 17 18 17 16 16 15 13 14 13 10 11 16 20 19 18 19 20 20 23 23 22
22 22 25 24 24 24 23 22 25 25 24 26 25 20 19 19 19 17 17 18 19 16 20 22 25 17 15 15 17 15 14 13 13 15 19 22 19 20 21 22 22 22 20
22 23 24 24 23 21 20 22 22 23 21 20 19 17 17 17 19 17 16 18 18 18 20 20 13 15 18 17 13 15 13 15 15 16 19 22 22 22 22 23 23 20 19
21 21 22 22 19 19 20 20 21 19 18 17 16 14 15 16 17 15 15 17 17 17 20 20 10 11 21 19 16 15 14 14 15 15 18 20 23 22 22 21 21 22 20
18 20 20 19 18 19 19 19 20 18 17 16 15 13 14 15 13 12 13 17 16 18 15 16 10 7 18 16 16 13 11 13 14 15 17 19 22 23 25 22 24 21 17
17 18 18 17 17 18 18 19 18 18 16 15 13 13 12 11 11 11 12 14 16 18 15 12 2 6 18 17 16 13 14 12 10 9 13 16 21 27 25 26 27 23 20
16 16 16 17 17 17 18 17 17 16 16 15 14 14 12 11 10 9 10 13 15 17 14 3 4 11 17 14 14 15 16 16 16 9 9 14 21 19 31 25 27 22 20
16 15 16 17 17 16 16 16 15 15 15 16 14 14 15 11 8 6 9 11 14 15 13 6 7 14 15 15 18 18 18 19 18 12 10 12 20 22 26 25 20 24 23
15 15 17 16 16 15 15 15 15 14 14 15 14 14 15 12 9 7 9 10 15 11 4 11 10 13 13 17 19 18 19 22 20 16 15 13 15 19 21 20 23 23 22
15 16 16 15 15 14 15 13 12 14 14 12 12 12 14 12 10 7 8 9 9 7 8 10 11 14 15 17 20 18 18 21 20 18 18 19 18 19 20 23 20 17 18
15 15 16 14 14 15 13 13 13 14 13 13 12 14 12 11 11 8 7 6 4 6 9 8 10 14 15 17 18 18 19 19 17 18 18 18 19 20 18 18 15 13 13
15 16 14 13 14 13 10 13 14 13 12 10 11 15 14 12 11 9 8 6 4 2 3 6 10 14 17 18 19 19 19 18 19 18 18 17 18 18 19 19 19 13 9
15 15 13 12 14 10 11 12 12 8 5 4 8 13 13 12 10 10 10 9 7 4 3 5 8 15 18 19 19 19 19 19 19 17 17 18 18 18 19 20 20 17 12
16 14 12 12 12 10 10 8 6 6 7 12 12 11 10 9 11 11 9 9 9 7 5 6 9 11 17 16 16 17 16 15 16 16 16 17 18 19 18 17 18 16 20
16 13 11 11 10 9 9 7 7 8 8 8 8 5 6 8 9 9 9 11 11 10 7 9 11 13 13 15 15 15 15 16 16 16 15 15 17 19 19 18 19 18 21
15 12 10 10 8 8 9 10 11 10 9 9 8 6 6 7 7 8 10 14 16 12 10 10 12 12 12 14 15 16 16 15 16 15 14 16 18 20 20 19 19 21 19
15 12 9 9 8 4 0 6 12 13 13 11 8 6 4 5 7 8 9 11 16 15 13 12 12 11 9 11 14 16 16 16 16 15 16 20 18 17 17 17 18 17 14
15 12 12 11 10 5 6 9 12 14 13 11 9 7 7 8 9 9 11 12 13 13 14 14 14 13 12 13 15 15 16 20 19 16 16 16 16 16 16 15 14 13 12
16 15 15 15 12 9 8 9 11 13 13 13 11 10 10 10 10 11 11 11 10 12 13 14 14 14 14 14 12 15 15 14 14 16 17 17 16 16 14 12 12 12 11
18 18 19 17 14 12 12 13 12 11 11 12 11 11 11 11 12 11 12 12 12 11 11 11 12 12 12 13 14 15 15 16 17 17 16 14 11 9 9 10 11 12 12
21 20 21 18 15 15 15 15 15 15 13 12 11 10 10 10 10 12 12 12 12 11 11 10 10 11 13 15 15 16 15 15 16 15 13 10 9 9 10 11 12 13 14
23 24 24 21 18 17 18 19 18 17 15 12 11 10 9 9 8 9 10 11 11 10 9 10 11 12 12 12 11 11 10 11 11 12 13 14 14 13 13 14 15 16 16
26 28 27 25 21 20 21 22 21 19 16 14 12 11 10 10 9 8 8 9 9 8 8 7 6 6 7 8 8 9 8 8 9 9 9 9 10 11 12 13 15 17 19
31 31 32 30 27 24 23 23 23 21 20 18 16 14 13 12 12 12 12 12 12 12 12 11 9 8 7 8 10 11 12 13 14 15 15 16 16 17 19 20 21 23 24
33 35 37 35 34 32 28 24 22 21 18 14 14 15 14 15 15 15 16 17 17 15 13 13 13 14 16 18 19 20 19 20 21 22 23 24 25 26 27 28 29 30 31

GFSGL_500_spd_060.txt.gz
Wind_Speed
30 31 31 31 27 27 25 25 24 24 24 25 27 25 26 28 27 27 24 24 22 20 21 20 17 21 17 16 15 11 10 10 12 16 16 16 11 13 18 17 15 18 17
30 28 28 25 24 25 24 24 24 24 23 26 24 25 28 28 27 23 21 22 20 20 20 17 19 20 20 16 16 14 11 9 7 14 16 17 15 14 16 19 18 17 17
25 25 24 24 24 23 22 23 23 22 24 23 24 26 26 23 22 21 20 19 19 20 19 20 20 21 21 20 17 17 12 12 10 10 16 17 16 14 15 17 17 18 18
24 23 23 23 22 22 22 22 19 22 22 22 23 24 21 20 19 20 20 18 18 18 21 23 24 24 18 16 20 14 13 13 12 11 14 18 18 17 17 18 18 17 16
24 22 22 21 22 21 19 17 20 20 20 22 23 20 17 17 17 19 18 17 18 18 21 21 21 17 12 16 14 16 15 13 12 13 14 17 20 17 18 18 17 18 17
22 21 21 22 19 17 15 17 18 19 21 22 21 17 17 16 16 16 15 17 17 18 20 23 20 11 10 17 17 14 11 10 11 12 13 16 20 18 17 18 19 18 14
21 21 21 17 15 14 15 17 17 20 22 21 18 16 15 15 15 15 15 18 17 18 19 18 7 7 10 19 17 12 10 10 12 11 12 14 17 19 17 18 16 19 20
20 19 16 12 12 13 15 15 17 20 18 17 17 17 14 17 15 15 16 15 17 19 19 16 3 2 13 16 14 12 13 13 12 12 14 15 18 19 19 21 19 20 18
17 16 13 10 12 13 14 15 18 17 16 15 16 15 16 17 16 14 14 14 16 21 19 6 2 9 13 13 15 15 16 17 12 9 10 14 17 20 24 21 19 21 18
16 13 11 10 10 13 14 16 15 15 15 15 16 15 16 15 14 13 11 13 15 12 10 7 8 12 10 15 17 19 18 17 11 8 12 16 18 19 24 24 26 23 21
14 11 9 10 12 12 13 14 14 15 14 15 17 15 14 13 12 12 9 10 11 10 2 7 9 13 11 18 18 18 19 19 17 10 21 22 21 23 24 24 23 25 24
13 8 10 11 11 11 12 14 14 14 16 17 17 17 15 11 12 13 9 6 7 8 5 5 7 10 15 16 15 17 18 19 16 15 14 21 20 23 23 21 22 19 20
11 8 11 11 10 10 12 12 12 15 17 16 16 16 17 14 14 13 9 4 3 3 5 3 9 11 13 15 16 13 16 18 15 14 15 17 19 21 22 21 17 16 16
9 10 10 10 10 10 11 11 14 15 14 12 13 13 13 15 13 12 9 5 4 2 0 2 8 12 12 14 14 15 16 14 13 14 15 14 17 20 21 19 17 14 12
10 10 10 10 9 10 11 12 12 11 8 7 6 8 11 11 10 10 8 7 6 4 3 2 7 12 14 14 15 15 15 14 15 15 15 15 16 15 15 16 18 16 13
10 9 9 8 9 9 11 11 10 9 6 7 7 7 8 8 7 9 7 6 7 7 5 5 7 11 13 14 15 15 15 16 17 17 17 17 17 17 16 17 20 18 15
11 9 9 7 7 8 9 11 13 8 9 9 7 5 4 5 6 7 6 7 10 9 7 8 9 10 12 14 15 16 15 14 13 13 13 14 15 17 19 16 16 16 19
11 10 9 7 4 5 8 8 5 10 10 7 5 3 2 3 6 6 8 13 12 9 8 9 10 9 10 13 15 15 14 14 15 13 11 10 12 14 15 17 16 19 19
11 11 8 7 4 3 1 5 9 11 10 7 5 4 4 5 6 7 8 10 11 9 8 9 9 9 9 9 11 13 14 13 13 13 10 13 12 12 15 17 18 18 16
11 11 10 8 7 4 4 8 9 8 8 8 8 7 7 9 8 7 8 9 9 9 9 9 7 8 8 8 10 10 11 13 14 13 13 12 15 16 16 16 15 14 13
14 13 12 10 11 7 6 9 10 9 8 6 5 6 7 8 9 10 12 11 11 9 9 9 8 9 8 9 8 10 10 9 9 12 14 14 14 13 10 9 9 10 12
15 13 13 14 12 10 10 12 11 10 8 8 8 7 7 8 8 8 10 10 12 13 12 12 11 11 10 10 12 12 11 12 12 12 12 12 10 9 9 10 11 12 12
19 20 17 17 15 12 13 15 14 12 12 11 9 9 9 8 9 7 9 10 10 11 11 11 10 10 11 11 11 11 11 11 13 13 12 10 9 8 9 10 11 11 12
23 22 19 20 17 15 15 17 17 16 13 11 10 9 9 10 11 10 10 10 8 7 7 6 6 5 6 7 8 7 6 6 7 8 9 9 9 10 11 12 13 15 17
25 23 22 23 21 18 17 20 20 17 16 13 11 8 4 6 6 6 6 6 6 6 5 5 6 7 7 8 9 10 11 12 13 14 14 15 16 16 18 19 21 22 24
26 26 30 29 28 23 20 19 15 16 15 14 13 13 13 14 13 13 13 12 12 11 11 11 12 14 14 15 15 15 15 16 18 19 20 21 22 23 24 26 28 29 31

GFSGL_500_spd_063.txt.gz
Wind_Speed
27 29 28 27 24 25 26 25 24 25 24 23 24 23 23 22 25 28 29 26 21 21 20 20 22 16 18 17 12 11 10 9 10 9 10 10 8 12 13 16 18 17 18
29 28 24 23 22 24 24 22 20 22 23 24 22 22 21 24 27 25 24 21 20 20 18 20 19 18 18 17 16 11 10 9 8 11 13 14 14 11 13 14 16 17 17
27 27 24 21 23 22 22 20 21 22 23 21 21 20 22 24 24 24 21 20 20 19 19 20 19 19 22 20 15 15 15 14 11 8 14 14 16 15 15 17 17 16 16
29 24 22 23 22 19 19 20 20 22 20 19 19 19 21 21 23 22 18 18 20 17 19 20 20 21 21 18 15 16 18 15 13 11 12 16 17 16 15 18 20 18 19
25 23 24 22 18 19 19 18 19 19 19 17 17 20 20 20 20 17 16 19 16 17 19 20 21 23 19 16 15 18 18 15 15 14 15 19 20 18 19 20 21 21 20
27 27 22 19 19 18 17 17 17 17 17 16 18 19 18 18 17 14 16 14 15 16 19 22 23 20 12 12 13 16 19 17 16 15 16 18 21 20 20 20 21 20 17
26 23 21 19 16 16 15 16 17 15 15 15 16 14 14 15 15 14 15 13 16 17 21 18 14 11 12 11 15 14 8 12 15 16 16 17 20 20 18 18 18 19 21
26 23 18 15 15 14 15 16 13 13 14 13 13 14 14 14 14 15 15 14 15 16 19 18 7 4 3 14 15 11 9 14 16 18 19 20 22 21 20 20 22 21 18
25 21 17 15 14 15 15 12 12 12 12 12 12 13 14 14 13 13 13 12 14 18 16 5 3 6 8 11 12 12 13 14 15 17 19 21 21 22 22 20 18 16 17
22 18 16 15 15 15 12 11 10 11 11 12 13 14 14 14 12 11 11 11 13 14 9 2 4 8 7 9 11 14 15 13 11 12 17 20 23 23 22 22 21 21 19
21 17 15 14 13 12 9 9 10 10 11 13 14 14 13 13 11 10 9 9 11 9 2 3 6 9 6 10 13 15 16 15 9 7 10 16 24 22 21 23 21 23 21
19 15 15 13 12 9 8 8 10 12 12 13 15 16 14 13 12 10 9 9 8 6 1 4 6 7 9 13 13 14 13 12 6 11 12 13 17 22 20 24 23 23 18
17 15 12 11 9 7 7 8 10 10 12 15 14 14 14 12 12 11 9 8 4 2 4 4 8 8 11 13 11 11 11 12 9 8 12 12 18 18 22 20 21 22 22
17 14 11 9 7 5 6 8 9 13 13 12 11 11 12 12 12 11 8 7 5 3 2 1 7 9 10 11 12 9 9 11 11 12 13 12 18 20 21 21 21 21 21
16 13 10 6 6 6 7 8 10 10 10 7 7 7 5 8 10 9 7 7 5 5 3 1 5 10 11 13 14 15 16 15 14 16 15 14 17 21 19 19 17 18 19
15 11 8 7 5 6 7 9 8 7 6 4 3 4 5 7 8 8 7 7 7 7 5 3 4 10 10 12 15 17 17 15 15 15 16 18 17 17 18 19 19 16 16
14 10 8 7 6 6 8 7 9 8 6 6 6 6 5 6 7 7 7 8 8 8 6 5 6 9 10 11 13 12 12 13 13 12 12 13 14 15 15 16 16 16 16
12 9 9 7 5 5 4 6 4 8 9 7 5 3 4 3 4 5 6 8 10 9 8 9 7 8 11 13 13 13 13 12 12 12 12 12 13 14 14 15 16 18 19
12 11 10 7 5 4 1 2 5 8 9 6 2 1 2 2 3 5 6 12 10 8 8 9 9 7 9 11 11 11 11 10 11 12 11 9 12 14 15 15 18 18 17
13 12 11 9 8 5 3 4 7 8 6 4 2 2 5 5 6 7 9 10 10 8 5 7 8 9 10 11 11 12 12 11 12 13 10 13 13 13 15 17 17 20 20
13 12 11 10 10 6 4 6 7 8 7 7 5 3 4 6 6 8 8 9 11 10 8 8 8 9 9 10 9 11 12 12 13 14 15 14 14 16 17 18 18 19 18
12 12 11 11 11 8 6 6 8 8 6 5 5 5 5 6 7 7 10 10 10 10 10 9 10 10 10 10 11 12 13 12 12 14 15 14 14 15 15 15 15 16 17
13 13 13 11 12 10 8 8 9 7 6 5 5 6 7 6 7 6 6 9 10 10 8 8 7 7 8 8 9 10 11 11 11 12 13 14 13 12 11 11 11 12 14
15 14 17 12 14 13 11 10 11 11 9 8 5 5 6 6 6 9 8 10 11 10 9 7 7 9 10 11 10 10 10 11 11 11 11 10 11 12 13 15 16 17 19
18 23 18 16 19 19 12 11 14 13 10 8 7 7 7 6 5 7 7 9 9 7 7 7 7 8 9 9 10 11 12 13 14 15 15 16 16 16 17 17 18 20 22
24 28 21 17 20 17 13 10 9 13 12 13 12 11 12 13 14 13 13 13 12 11 9 9 10 10 10 10 11 11 11 12 13 14 16 17 18 19 21 22 24 26 28

GFSGL_500_spd_069.txt.gz
Wind_Speed
56 47 52 48 44 44 46 43 40 41 40 38 39 34 32 32 31 31 29 28 27 28 26 22 20 21 19 18 17 17 15 15 15 14 12 13 14 15 15 15 15 24 21
57 50 50 45 46 42 43 43 39 38 34 34 35 30 29 29 29 29 27 27 26 27 22 19 20 20 19 19 18 17 16 14 15 16 14 14 15 15 17 21 21 26 22
49 50 49 43 43 41 40 37 37 31 31 33 29 27 28 26 28 27 27 26 26 24 20 19 20 20 19 20 19 18 17 16 18 17 15 14 13 12 10 24 26 24 23
49 52 47 47 46 39 36 35 34 31 28 27 25 24 25 28 26 25 25 25 25 20 19 20 20 21 22 22 20 20 22 21 21 20 16 15 16 14 14 17 22 23 21
51 51 48 46 41 37 34 33 31 26 27 27 23 24 27 24 24 23 24 23 21 18 18 19 21 23 24 24 25 25 25 23 23 21 18 15 19 18 19 19 22 24 24
51 49 50 44 39 35 34 32 29 29 28 25 24 24 24 22 22 22 21 20 18 16 17 18 21 23 24 23 27 25 22 24 25 22 21 17 20 22 20 19 22 22 23
46 45 43 40 36 35 32 32 31 29 27 26 25 24 21 19 19 19 20 20 16 17 16 19 21 22 22 22 19 17 15 22 28 23 20 17 18 22 23 21 22 24 24
40 40 37 36 35 33 33 33 31 29 28 27 24 20 19 18 16 17 18 18 17 16 17 19 20 14 9 15 11 11 15 24 22 21 20 19 18 21 21 20 23 25 23
42 39 37 35 35 36 34 32 31 28 26 25 21 19 18 15 16 16 18 16 14 14 15 18 12 6 6 1 5 8 5 18 20 21 19 20 21 23 23 21 19 20 22
44 42 39 40 36 34 32 28 29 27 24 20 19 18 16 16 16 17 16 14 12 11 14 12 8 5 5 3 3 4 7 8 11 16 16 19 21 23 22 23 23 23 24
43 42 41 34 35 35 30 28 25 23 21 18 17 17 16 15 15 16 13 12 9 9 11 6 5 5 6 6 5 6 6 6 8 12 15 17 19 22 22 23 25 25 23
49 45 41 36 33 30 27 23 21 19 17 17 17 16 17 16 16 17 14 10 9 7 9 6 5 7 4 5 6 7 8 7 6 6 11 16 19 21 24 23 25 24 25
38 47 40 35 30 27 23 21 19 18 18 16 16 16 16 17 19 17 16 11 11 7 6 6 6 7 5 7 8 8 8 8 7 7 8 16 21 23 24 25 22 22 21
45 42 36 31 27 23 21 18 18 18 17 15 15 16 16 18 19 16 15 12 12 9 7 4 6 7 7 7 7 9 9 9 6 6 10 9 17 22 23 25 23 23 20
41 37 33 29 26 23 20 18 16 15 15 14 14 13 14 17 19 17 16 15 13 10 9 6 6 9 9 9 10 9 10 11 7 5 9 11 12 20 21 24 21 21 22
38 33 29 27 23 20 18 17 16 16 13 11 9 8 8 8 11 15 16 16 13 12 11 8 6 9 10 12 14 12 11 13 9 8 7 12 13 17 21 18 22 18 22
37 31 25 23 21 20 17 16 15 13 13 10 9 8 5 5 8 11 14 14 12 12 13 10 8 9 10 12 13 12 11 14 12 10 10 12 14 16 15 17 18 18 18
32 28 25 23 21 17 15 13 12 13 13 11 10 7 5 6 9 12 13 13 12 11 12 10 9 9 12 12 12 12 13 14 12 11 12 13 15 16 16 16 17 17 16
32 27 24 22 18 14 11 9 9 11 11 11 9 6 5 7 9 11 11 11 12 13 12 10 9 8 11 12 12 12 11 11 12 12 12 13 14 16 17 18 19 19 19
29 26 23 20 15 11 8 9 11 13 13 11 8 5 5 7 9 10 10 12 13 13 12 12 9 8 10 12 11 12 12 12 12 12 12 13 14 16 19 21 21 21 21
27 25 21 16 14 11 11 13 13 12 11 9 7 5 4 7 8 8 11 12 12 11 10 9 9 7 7 9 11 12 11 11 11 11 11 12 12 14 15 16 18 19 18
27 23 19 16 15 13 14 14 12 10 10 9 8 8 8 9 10 10 11 11 10 11 11 11 11 9 9 9 9 10 12 12 11 12 14 14 13 12 11 13 16 15 16
25 22 18 16 15 13 13 14 12 11 10 10 11 11 10 10 11 12 13 13 12 12 13 13 12 11 9 10 10 10 10 10 10 11 11 11 12 11 11 12 13 13 12
23 22 19 17 15 12 14 16 13 10 10 11 11 10 11 11 11 12 12 10 9 10 10 9 8 7 7 8 8 8 9 10 10 11 10 11 11 10 10 10 11 12 15
23 20 16 15 14 12 12 14 14 14 13 12 12 11 10 9 9 9 9 8 7 7 7 7 7 7 7 7 7 7 8 8 10 11 11 11 12 12 12 13 15 17 19
22 17 14 14 15 14 12 14 15 15 16 15 13 11 10 9 7 6 7 7 6 4 2 2 2 2 2 3 4 5 6 7 8 10 11 12 14 15 18 20 22 23 25

GFSGL_500_spd_072.txt.gz
Wind_Speed
68 66 63 60 55 44 42 43 49 46 43 45 47 43 41 41 35 40 35 33 32 33 32 30 29 26 24 24 21 21 20 20 20 16 15 13 13 14 15 15 14 13 16
63 64 62 58 52 47 47 49 48 43 45 51 47 43 40 33 31 35 32 31 32 30 30 29 27 25 24 24 22 22 20 19 21 19 15 14 14 17 17 16 15 12 18
65 63 61 60 55 44 47 49 46 41 48 50 47 41 30 29 33 31 30 30 30 29 30 28 26 24 26 24 23 24 22 21 21 18 17 15 15 17 19 18 21 19 21
64 62 59 59 54 48 47 42 44 48 47 45 43 33 31 29 28 28 28 28 28 29 27 27 25 26 25 23 24 24 24 24 24 21 20 17 16 17 17 18 22 19 24
64 60 59 58 54 54 48 45 47 45 41 41 37 32 28 26 26 27 27 26 28 27 25 25 25 25 23 24 26 27 28 28 25 24 22 20 17 17 15 11 15 21 22
62 59 61 59 56 55 48 45 46 42 40 35 32 29 25 23 28 27 26 26 25 23 25 24 24 23 23 26 29 31 30 30 27 24 23 21 17 20 19 18 20 22 22
62 64 64 62 57 54 46 48 48 41 34 31 32 25 26 27 26 24 26 23 22 24 25 24 23 23 26 29 27 26 24 20 19 23 22 19 18 22 21 20 20 23 25
64 65 62 59 56 51 46 47 43 36 33 32 27 26 26 28 25 25 23 20 23 23 23 23 21 23 23 17 18 13 10 11 14 19 22 19 19 19 22 23 22 21 22
57 59 56 52 49 44 46 42 36 33 31 29 27 27 28 25 26 24 22 21 21 21 20 19 19 19 13 11 9 4 3 10 15 24 23 20 19 20 22 22 20 20 23
45 46 44 45 45 46 44 38 33 32 30 28 29 28 26 27 26 22 22 21 21 19 17 17 16 12 8 7 5 3 1 2 17 19 19 16 17 18 22 22 20 21 22
35 41 42 45 48 44 40 37 33 30 29 29 28 28 28 26 23 21 20 19 18 17 16 13 10 8 6 6 4 3 5 7 10 12 17 17 16 17 20 22 22 21 20
37 39 45 48 44 40 37 35 32 30 30 27 28 28 26 24 22 20 20 18 16 17 14 10 9 7 6 7 7 5 5 4 6 7 10 12 15 17 20 23 22 22 21
36 37 44 44 45 40 36 31 30 28 26 28 27 25 24 22 21 22 21 19 17 17 14 8 9 8 7 8 8 9 8 7 5 5 10 15 17 18 21 22 19 20 21
42 45 45 49 43 39 34 31 28 28 27 25 23 21 21 20 21 23 23 19 18 18 14 8 9 10 9 9 8 9 8 9 7 5 6 10 15 18 22 22 19 19 20
36 41 37 46 39 34 31 29 28 27 24 20 19 20 21 22 22 22 20 18 19 18 15 10 9 10 11 10 10 9 8 7 4 2 6 8 9 19 22 22 23 22 21
48 48 46 39 35 34 33 30 26 21 18 18 19 18 16 15 16 16 18 19 19 17 14 11 9 9 11 11 12 10 8 10 7 5 4 7 5 14 18 20 19 19 19
47 45 41 38 35 31 28 24 21 20 19 18 16 13 10 8 9 10 15 18 18 16 13 12 11 8 10 10 11 11 9 11 10 7 5 4 6 11 13 11 19 19 14
40 39 37 34 32 27 23 22 20 18 17 16 14 13 10 9 9 9 11 14 14 13 13 12 11 8 9 11 10 12 11 11 11 9 9 8 9 10 11 14 14 16 15
37 35 34 29 25 24 21 18 17 16 15 15 14 13 12 11 11 12 14 14 13 12 12 11 10 8 9 10 10 10 11 11 11 10 10 11 12 13 14 13 14 15 16
34 31 28 27 24 20 16 13 13 14 15 14 12 11 10 11 9 10 11 11 11 11 11 10 9 8 9 10 10 10 11 11 11 11 11 11 12 14 16 18 19 20 20
30 27 27 25 20 15 11 12 13 14 13 12 10 9 8 7 8 8 8 9 10 12 12 11 10 8 7 9 10 10 11 10 10 11 12 12 13 13 14 16 18 20 20
30 28 24 20 18 14 15 15 15 14 12 11 10 10 9 8 9 9 11 12 12 12 11 12 11 10 8 8 8 9 9 9 9 10 11 12 12 11 11 12 13 12 13
27 25 21 19 17 16 17 17 16 14 13 12 10 7 6 9 11 11 12 13 12 11 11 10 9 8 7 8 9 11 11 11 11 10 11 11 10 10 9 9 8 9 12
24 22 21 20 18 17 17 17 15 12 11 10 9 7 5 5 7 8 9 9 8 8 8 7 7 7 6 5 6 8 8 8 8 8 7 8 9 10 10 10 10 10 11
24 22 21 20 19 18 19 17 15 12 11 10 9 7 6 6 6 8 10 10 8 7 5 5 5 4 3 3 3 4 5 5 6 9 11 10 10 10 10 11 12 13 14
24 22 20 20 19 19 19 17 15 13 12 10 10 10 9 9 8 7 7 9 9 8 7 6 5 4 3 2 2 2 2 2 4 6 7 8 9 10 12 14 17 19 21

GFSGL_500_spd_075.txt.gz
Wind_Speed
73 71 70 67 62 61 57 48 40 46 56 50 51 55 49 46 45 44 41 45 40 32 35 31 30 31 33 33 31 27 25 23 23 22 20 18 19 15 16 16 14 12 12
74 74 72 68 63 61 56 50 43 47 49 50 50 50 46 47 45 43 43 42 30 32 31 28 30 30 33 32 28 28 25 24 22 23 23 22 20 17 17 17 17 16 15
73 72 71 69 67 63 57 49 48 48 51 52 49 47 44 47 44 45 41 34 30 32 26 29 29 31 32 30 28 28 25 25 25 26 25 22 19 19 18 18 18 17 17
74 72 69 66 64 62 58 51 48 47 51 53 49 41 42 43 44 41 36 33 31 25 27 28 29 32 31 28 28 27 27 27 27 27 27 25 21 20 19 19 20 21 21
73 72 70 66 63 62 58 53 51 49 48 50 48 42 41 43 42 36 36 30 25 26 26 27 30 30 28 27 28 28 30 30 30 29 29 29 26 22 21 19 19 23 24
74 68 70 69 64 62 57 54 52 51 45 43 41 40 42 40 38 34 30 28 26 26 25 27 30 28 27 27 29 31 32 33 33 33 32 28 26 24 20 18 14 14 21
73 68 64 68 65 63 60 55 53 49 44 40 39 39 38 37 33 30 28 26 25 25 26 29 28 27 27 28 30 30 27 29 29 28 26 25 25 26 20 19 16 15 20
72 69 64 66 64 62 60 56 51 44 40 42 39 37 36 34 27 30 27 25 25 25 27 27 27 25 26 27 25 20 21 18 17 18 21 23 21 20 18 18 21 19 18
60 64 63 64 63 61 59 53 46 43 40 41 37 37 35 29 29 28 26 26 24 26 26 27 25 23 24 22 18 14 12 11 11 7 15 23 19 19 17 20 21 16 16
57 63 63 62 62 58 56 52 46 40 40 36 39 37 30 29 28 26 27 24 26 25 27 24 22 21 21 17 14 12 12 10 14 14 16 15 14 17 17 19 21 21 21
55 61 64 64 61 59 53 45 42 39 37 41 38 33 30 27 26 27 25 26 25 25 22 21 19 19 16 13 12 9 6 4 9 9 17 17 16 17 18 19 20 21 20
43 52 55 56 53 48 45 43 41 40 41 37 33 31 27 28 27 26 26 25 24 23 20 20 17 17 13 12 11 9 6 5 6 9 14 17 16 17 18 19 20 19 19
38 42 49 50 49 46 43 41 40 40 36 35 32 28 26 26 26 26 25 24 24 22 21 19 17 16 14 12 10 10 8 6 7 7 10 13 15 16 17 19 20 19 20
30 33 41 40 42 42 41 41 40 38 37 29 26 26 27 26 25 25 24 24 23 23 22 19 17 14 14 12 11 11 11 11 8 7 8 11 14 15 17 19 20 19 21
29 36 36 38 38 40 42 43 41 38 34 30 29 28 26 24 23 22 23 24 24 24 21 19 16 14 13 12 11 11 12 10 7 5 5 6 8 14 19 19 19 19 20
26 31 31 40 44 44 47 44 37 32 28 25 24 22 22 22 22 23 22 22 22 20 19 18 16 13 11 11 13 13 12 11 11 8 4 6 6 9 18 19 20 19 18
31 29 24 40 44 43 43 34 28 24 24 24 23 21 19 17 17 17 18 20 21 19 18 16 16 13 10 11 13 15 13 12 12 10 7 3 5 7 13 16 18 17 18
30 27 26 37 48 42 35 31 29 27 26 23 20 17 15 16 14 13 12 15 17 17 16 15 15 12 11 12 13 15 14 12 11 10 8 5 5 6 11 12 11 17 16
28 27 30 42 39 37 33 28 25 24 21 18 17 16 16 17 14 13 11 12 13 14 15 14 13 11 11 11 12 13 13 12 11 10 9 9 7 8 8 7 9 11 15
41 44 41 37 34 30 27 26 22 18 16 17 16 16 17 16 14 12 14 15 15 15 14 14 12 12 11 11 11 11 11 11 12 11 10 10 9 10 10 11 12 12 13
41 39 37 33 30 27 23 18 16 16 17 17 17 17 15 12 11 12 13 14 15 16 15 13 11 10 10 10 9 10 10 10 10 9 9 9 9 10 12 14 15 16 17
34 33 31 28 24 20 16 15 17 19 19 18 15 11 9 8 9 10 11 12 13 14 13 12 12 10 9 10 11 10 11 11 10 10 10 10 11 10 10 11 12 14 15
30 28 25 21 19 18 19 22 22 21 17 13 10 7 7 7 8 10 12 12 12 11 11 11 11 9 7 8 9 12 12 13 13 11 10 9 9 10 12 12 11 11 12
27 25 22 20 20 22 25 23 20 16 13 11 9 7 6 5 7 9 10 11 11 10 10 9 9 8 7 7 8 8 9 9 9 9 7 5 5 7 8 10 11 12 13
26 23 22 23 25 25 22 19 16 14 12 9 7 8 9 8 8 9 10 10 10 9 9 8 8 8 8 8 7 6 6 6 5 5 6 7 5 6 6 7 8 9 11
25 24 24 24 22 21 19 18 16 14 11 9 8 9 12 11 11 11 12 14 14 13 12 11 10 10 9 8 9 9 9 8 10 11 9 8 9 9 11 13 14 16 18

GFSGL_500_spd_078.txt.gz
Wind_Speed
73 72 73 70 69 69 74 80 74 66 57 49 56 54 56 57 57 54 56 50 46 44 41 42 33 30 32 32 29 31 32 31 28 28 25 23 22 21 19 16 17 15 11
72 72 74 72 68 66 61 65 68 61 50 49 54 52 52 51 49 52 51 47 46 42 40 35 32 31 32 30 29 32 31 30 28 28 25 25 23 22 19 17 18 17 16
69 72 73 72 71 67 62 58 56 54 46 48 50 47 45 48 47 48 46 46 44 39 37 33 34 32 31 28 31 30 31 28 29 28 26 26 26 22 19 20 18 20 19
77 72 72 73 73 69 64 59 53 50 45 49 48 46 46 46 46 46 44 43 39 37 35 34 31 32 27 29 29 31 28 27 28 29 29 29 29 26 21 22 21 21 20
84 80 73 74 73 68 65 61 56 51 46 45 47 46 46 44 45 42 39 42 38 37 35 30 32 27 28 29 31 29 27 28 31 32 33 33 31 29 25 23 22 21 22
76 86 77 72 73 70 65 61 58 51 48 48 45 43 41 42 42 41 41 41 36 37 31 29 30 25 28 31 30 27 29 31 33 34 33 33 32 30 29 27 23 22 22
60 84 83 75 72 70 65 59 53 53 48 46 43 40 37 38 37 40 42 35 37 33 26 32 25 26 29 31 28 28 29 32 29 30 31 31 29 30 27 25 22 20 19
53 69 83 77 70 68 66 60 56 53 48 44 41 38 37 35 39 39 34 35 32 29 29 26 24 27 29 28 27 27 28 25 26 24 24 21 21 22 24 24 21 19 16
47 61 77 75 70 68 67 62 58 52 47 43 40 37 37 38 38 34 34 32 28 25 29 22 25 27 29 27 25 25 23 23 23 23 19 15 16 18 21 22 22 22 20
33 55 72 75 68 65 64 62 58 52 47 45 40 38 37 38 38 34 31 29 26 29 25 22 25 26 26 23 23 21 18 18 19 23 14 7 7 13 14 15 19 16 13
18 53 67 71 65 60 60 60 58 53 48 43 42 36 37 39 35 32 31 27 28 25 21 23 24 24 21 20 20 18 15 15 14 10 11 9 8 10 12 13 14 16 16
42 53 59 60 60 57 59 59 56 51 47 42 37 36 36 34 32 32 29 28 24 22 21 23 22 21 18 19 18 16 13 12 12 8 8 12 12 12 14 15 16 17 17
49 56 59 59 59 59 59 58 54 47 42 39 37 35 34 32 31 31 29 25 22 22 22 22 21 19 18 19 17 15 12 12 9 9 8 11 15 16 17 17 17 18 17
55 57 59 59 59 58 54 50 45 41 37 34 33 33 32 32 30 29 25 23 22 22 22 23 21 18 18 18 16 15 14 13 12 10 11 11 13 15 16 17 18 18 18
47 46 53 52 50 48 45 42 39 35 33 31 31 33 32 31 30 26 22 22 23 22 23 22 20 18 18 16 15 15 15 14 14 13 11 10 11 13 16 18 18 18 19
32 34 37 39 40 40 38 35 36 34 34 36 37 33 32 28 23 21 23 23 23 23 22 20 18 17 17 15 15 17 16 14 13 13 9 8 9 10 12 17 17 17 17
32 33 33 33 35 35 33 35 32 30 32 32 31 28 26 23 21 21 21 22 22 21 20 18 17 16 16 13 14 17 16 14 15 14 12 8 9 10 9 15 17 17 17
34 33 30 30 33 33 33 32 35 34 31 30 29 26 21 18 18 19 17 16 18 19 20 18 17 16 15 14 14 16 16 16 14 13 11 9 7 7 6 11 15 18 18
32 29 32 30 34 32 32 31 29 35 33 29 23 18 17 19 18 16 15 14 13 16 19 18 16 15 15 14 13 15 15 16 14 13 12 9 7 6 7 10 10 10 15
32 28 29 20 25 38 33 32 34 27 23 21 19 19 19 16 16 16 14 14 12 14 16 15 14 15 15 13 12 13 13 15 14 13 12 10 10 9 8 8 6 8 9
29 26 23 20 32 36 36 29 25 23 21 20 19 18 16 15 16 15 14 15 16 16 15 14 14 15 13 11 10 10 11 11 11 11 10 10 10 11 11 13 14 15 15
34 38 41 38 33 29 26 24 23 21 20 19 17 14 14 13 14 14 13 14 15 14 14 15 15 13 12 11 12 12 12 11 11 11 10 10 10 10 11 11 11 13 15
41 36 34 33 29 26 24 22 20 20 18 15 14 13 12 12 12 11 11 12 12 13 15 15 15 13 11 10 11 13 14 13 12 11 10 10 10 10 11 11 12 11 12
36 33 30 27 24 22 20 20 19 18 17 17 15 12 11 10 10 11 11 12 13 13 12 11 11 10 10 10 11 12 12 12 11 11 10 10 9 8 7 8 9 9 11
31 29 26 24 24 23 21 20 19 18 17 15 14 12 11 11 12 12 12 12 11 10 9 9 9 9 9 8 9 9 9 9 8 7 7 8 8 7 9 10 11 11 12
26 23 24 23 21 20 21 20 20 19 17 15 13 13 13 13 13 13 13 13 13 12 11 11 11 10 9 9 9 9 9 9 10 9 9 9 11 11 11 12 13 14 16

GFSGL_500_spd_084.txt.gz
Wind_Speed
47 49 53 56 57 56 54 54 58 51 52 57 59 58 52 43 43 47 43 32 37 31 30 31 35 40 38 36 35 30 31 34 32 34 29 29 28 24 23 23 20 17 16
50 51 52 52 55 57 57 56 57 56 51 56 54 53 48 52 38 43 42 42 39 35 30 33 37 39 39 35 33 29 30 32 32 33 30 28 27 24 25 24 23 21 15
53 55 54 54 56 56 57 60 59 58 52 55 61 59 57 56 48 49 45 44 45 37 31 33 38 39 36 34 31 29 31 29 32 33 31 29 29 25 26 27 25 24 21
56 55 57 58 61 62 59 59 60 60 57 53 51 50 54 61 56 54 48 50 46 38 31 35 39 38 31 31 31 31 31 29 30 33 33 32 30 28 28 29 28 27 24
52 57 57 58 61 66 66 63 61 62 61 56 51 48 44 42 51 55 56 51 41 38 31 36 39 35 31 31 30 30 31 30 31 32 35 32 31 31 30 28 26 27 25
47 52 58 58 57 65 69 69 65 64 62 57 53 48 42 42 41 37 47 47 44 39 35 36 37 31 32 30 29 29 28 31 33 35 35 32 32 29 26 27 28 28 26
50 50 54 60 61 62 67 71 72 67 62 58 53 46 40 40 39 34 38 37 39 37 36 36 31 30 29 26 27 27 30 32 34 36 32 32 28 26 27 28 26 28 25
50 54 56 59 62 59 63 69 75 71 65 60 54 45 41 40 36 36 35 38 39 37 34 29 28 24 24 26 24 26 31 30 32 31 29 27 26 24 25 22 23 20 20
53 56 57 55 56 56 60 64 72 78 68 61 55 46 42 43 39 36 37 38 37 32 26 26 24 19 24 25 22 27 27 28 30 27 25 23 23 27 22 18 19 18 16
56 56 54 51 55 60 58 55 65 80 70 64 56 47 47 44 39 38 38 38 32 27 25 22 20 20 26 24 24 26 25 27 25 24 21 19 20 17 13 8 12 14 10
54 49 45 43 40 48 57 58 56 79 72 63 56 51 49 44 42 40 40 37 29 27 25 20 20 22 25 23 24 24 23 25 23 21 17 17 14 11 9 7 4 2 6
46 49 41 42 45 50 46 48 56 78 72 61 53 53 49 45 44 43 42 32 28 27 23 20 23 24 22 22 24 24 21 23 22 18 16 15 12 11 11 8 6 7 8
33 34 42 55 41 45 47 54 54 78 69 58 52 54 47 46 44 43 39 32 25 27 20 22 25 21 20 22 23 21 21 22 20 16 16 13 11 9 10 11 12 11 10
18 14 15 24 40 42 53 52 66 72 61 54 51 46 46 45 41 35 28 26 25 22 22 23 21 19 23 22 21 19 22 20 18 15 14 13 14 13 11 13 14 13 13
15 14 16 27 30 40 50 69 70 60 54 48 46 45 44 39 32 28 26 24 24 21 22 18 17 22 21 22 20 20 22 18 18 14 14 12 13 13 12 11 14 16 16
27 35 40 47 55 63 66 64 59 53 48 45 45 42 37 31 30 30 25 23 22 20 15 16 21 21 22 22 20 22 20 18 17 14 14 12 12 11 12 12 13 13 16
25 42 42 43 47 51 53 51 51 52 50 47 42 36 33 28 27 24 23 21 17 14 16 20 21 23 23 22 23 21 19 17 14 14 13 12 12 12 13 13 13 15 15
36 36 37 37 40 42 41 42 49 51 46 43 39 36 32 28 24 21 18 15 15 16 20 22 23 24 24 23 22 20 18 15 14 14 13 11 11 11 11 11 12 9 11
27 36 36 33 33 36 34 34 31 32 34 29 25 22 22 21 20 18 15 16 17 19 22 22 23 22 22 21 20 19 17 14 14 12 11 11 11 10 9 9 7 6 8
35 33 32 33 30 30 28 27 25 25 25 24 23 20 20 19 17 17 19 20 20 20 19 19 21 22 21 20 19 17 15 12 13 11 10 11 11 11 9 8 6 7 7
32 29 27 27 27 26 25 24 23 25 25 26 26 23 22 21 21 19 19 20 19 17 17 17 18 18 19 19 16 14 11 11 11 11 11 11 11 11 10 9 9 9 8
30 28 28 26 27 27 24 25 22 22 23 20 24 22 22 21 20 19 18 17 17 17 16 15 15 17 16 15 13 12 10 10 10 9 10 9 9 10 11 11 10 11 13
28 27 28 28 26 26 23 22 18 17 25 25 24 22 19 19 19 18 17 18 18 18 16 16 14 13 12 11 10 10 9 10 10 9 9 9 9 9 10 11 11 13 14
24 25 22 24 21 22 22 19 24 24 21 19 20 19 17 16 15 15 16 16 15 13 15 15 15 14 11 10 8 7 8 9 9 7 7 8 9 10 10 11 11 11 12
20 19 23 28 23 21 21 22 22 22 20 18 17 16 16 16 15 14 13 12 12 12 12 12 12 12 11 10 8 8 9 9 8 9 9 9 9 7 7 9 10 11 12
14 21 27 30 26 25 24 22 21 19 18 18 18 18 17 16 15 14 13 12 12 12 13 13 13 13 12 10 9 9 8 8 7 8 7 7 7 8 8 11 11 12 13

GFSGL_500_spd_087.txt.gz
Wind_Speed
40 43 42 46 50 52 53 51 48 50 42 43 63 74 70 57 39 51 48 52 42 36 35 33 34 29 31 22 27 26 24 25 27 30 26 26 26 28 26 24 19 21 21
40 43 44 44 46 46 49 53 52 51 47 43 40 49 59 67 71 43 34 35 44 34 33 28 33 31 30 25 27 26 22 24 28 30 26 25 26 28 26 26 23 23 25
40 40 43 45 46 46 48 49 50 51 50 50 47 43 43 54 52 53 48 39 36 31 38 33 34 39 30 27 26 26 23 24 28 30 26 23 26 28 30 28 26 27 28
45 45 42 46 47 50 52 53 51 50 51 51 51 47 46 42 43 44 46 44 40 37 38 40 37 36 32 26 25 27 24 24 27 29 24 24 29 29 32 30 29 31 29
50 52 52 50 51 51 52 57 57 54 53 53 52 51 47 45 45 48 44 46 45 44 47 41 38 36 33 28 26 28 23 26 28 26 24 27 31 32 33 32 29 28 28
50 53 57 56 58 55 50 56 61 60 59 56 55 54 51 48 41 51 49 49 50 46 48 47 42 39 29 31 28 28 24 24 26 24 26 29 31 30 33 30 27 29 27
51 52 54 56 56 57 56 54 56 63 65 62 58 56 53 49 44 43 44 50 45 50 52 48 41 35 31 31 30 25 21 25 22 23 26 31 28 29 28 27 27 27 26
60 52 49 53 56 55 56 58 57 59 65 68 63 59 54 51 47 42 42 39 41 44 46 45 39 37 30 31 28 21 23 22 21 22 27 27 27 25 24 27 27 25 23
53 52 52 52 54 57 59 55 53 54 60 70 69 63 56 52 48 48 46 43 40 40 41 41 44 35 28 27 23 21 19 20 21 22 26 23 23 20 22 22 22 20 20
49 54 56 59 59 60 63 60 51 52 57 63 73 64 58 53 50 47 45 45 43 44 39 38 28 24 26 24 22 16 17 20 21 22 23 21 19 17 20 16 16 14 14
49 52 55 57 58 60 61 61 53 51 57 61 73 69 61 52 52 51 47 46 42 40 37 30 26 21 25 19 16 15 19 21 20 22 20 20 17 15 17 16 13 10 5
51 57 63 66 66 62 57 54 46 44 54 56 75 73 62 54 55 52 49 44 44 38 31 32 23 25 23 17 17 17 21 20 21 21 18 17 16 14 15 17 15 10 8
57 59 56 49 50 49 45 41 42 52 47 52 77 74 61 58 56 54 52 45 42 37 32 24 24 25 20 17 16 19 19 20 20 18 16 16 15 14 14 16 15 14 11
35 36 41 42 41 46 53 53 42 42 41 48 81 68 60 57 58 55 50 47 46 40 30 24 26 22 19 18 19 19 19 21 20 15 16 15 15 14 15 14 14 16 14
27 28 20 29 32 39 39 53 32 42 45 63 75 62 55 57 55 52 48 46 44 33 25 26 24 21 20 19 19 20 21 21 17 14 16 16 15 14 13 11 12 12 14
16 13 5 10 13 16 33 37 37 45 60 68 63 56 53 50 49 45 42 40 37 27 23 22 20 20 20 19 21 22 21 17 14 14 17 16 15 14 11 13 14 13 12
29 30 30 30 26 28 35 39 54 70 70 63 58 57 53 48 47 40 33 29 27 24 21 20 21 21 21 22 22 20 17 14 14 15 17 15 15 13 12 12 13 12 14
23 33 37 39 42 47 55 64 68 66 65 65 62 56 51 48 45 38 35 29 22 21 22 21 20 21 22 21 19 17 15 15 15 16 16 16 14 11 11 11 11 11 10
24 27 35 39 42 46 50 54 59 60 59 54 52 54 46 42 37 33 28 24 24 23 20 19 20 21 20 18 16 14 14 16 16 16 16 16 14 12 10 9 9 8 6
23 23 26 31 28 34 39 39 44 48 54 53 48 43 37 33 30 27 25 24 22 22 22 19 18 18 16 14 13 14 16 15 16 17 15 13 14 12 10 9 8 6 7
31 31 32 37 36 36 27 40 47 43 40 37 34 32 31 28 27 27 26 24 19 15 15 16 14 12 14 15 15 15 15 16 17 15 15 14 14 12 10 9 9 9 9
32 27 29 31 32 32 30 34 37 34 33 32 31 28 26 27 26 22 17 15 16 17 15 12 11 11 11 12 13 13 14 16 15 12 12 12 11 10 9 9 9 9 10
25 23 25 26 26 25 26 26 25 24 23 22 24 25 24 22 18 17 17 17 15 14 12 11 10 9 9 11 14 14 15 14 11 11 10 9 8 7 7 8 9 10 10
25 20 23 25 24 25 21 19 21 20 22 27 27 25 22 20 18 16 14 13 12 13 14 14 15 14 13 12 13 15 13 12 10 8 7 7 7 7 8 9 9 9 9
22 20 24 23 23 22 19 19 19 27 26 25 23 20 18 17 15 13 13 14 15 15 16 17 17 16 14 14 12 11 10 10 9 7 7 7 8 8 6 5 7 9 11
20 19 22 26 27 23 25 28 26 24 22 19 18 16 15 14 14 14 14 15 15 16 17 17 17 16 16 15 13 11 11 10 9 8 7 7 6 6 7 7 9 10 10